Glasgow, MT

6:19 PM MDT on May 20, 2018 (GMT -0600)
Wokal-Glasgow International

Weather History for KGGW - February, 2014

Change the Weather History Date:

Friday, February 7, 2014

  Actual Average Record
Temperature  
Mean Temperature -5 °F 17 °F  
Max Temperature 8 °F 27 °F 51 °F (1991)
Min Temperature -19 °F 7 °F -40 °F (1933)
Degree Days  
Heating Degree Days 70 48  
Month to date heating degree days 459 341  
Since 1 July heating degree days 5591 5430  
Cooling Degree Days 0 0  
Month to date cooling degree days 0 0  
Year to date cooling degree days 0 0  
Moisture  
Dew Point -13 °F    
Average Humidity 65    
Maximum Humidity 81    
Minimum Humidity 49    
Precipitation  
Precipitation 0.00 in 0.01 in 0.37 in (1951)
Month to date precipitation T 0.06  
Year to date precipitation 0.13 0.43  
Snow  
Snow 0.00 in 0.10 in 3.50 in (1951)
Month to date snowfall 0.1 1.1  
Since 1 July snowfall 20.0 23.7  
Snow Depth T in    
Sea Level Pressure  
Sea Level Pressure 30.07 in    
Wind  
Wind Speed 4 mph (East)    
Max Wind Speed 8 mph    
Max Gust Speed 9 mph    
Visibility 10 miles    
Events      
T = Trace of Precipitation, MM = Missing Value Source: NWS Daily Summary

Daily Weather History Graph

Daily Weather History Graph

Search for Another Location

Airport or City:

Astronomy

Feb. 07, 2014 Rise Set
Actual Time 7:25 AM MST 5:15 PM MST
Civil Twilight 6:53 AM MST 5:48 PM MST
Nautical Twilight 6:16 AM MST 6:25 PM MST
Astronomical Twilight 5:40 AM MST 7:01 PM MST
Moon 11:24 AM MST (2/7) 1:48 AM MST (2/7)
Length of Visible Light 10h 55m
Length of Day
9h 49m
First Quarter, 60% of the Moon is Illuminated
Feb 7
First Quarter
Feb 14
Full
Feb 22
Last Quarter
Mar 1
New
Mar 8
First Quarter

Hourly Weather History & Observations

Time (MST) Temp. Windchill Dew Point Humidity Pressure Visibility Wind Dir Wind Speed Gust Speed Precip Events Conditions
12:53 AM -9.0 °F - -17.0 °F 68% 30.13 in 10.0 mi Calm Calm - N/A   Clear
1:53 AM -11.0 °F - -18.0 °F 71% 30.12 in 10.0 mi Calm Calm - N/A   Clear
2:53 AM -15.0 °F -29.3 °F -20.0 °F 78% 30.12 in 10.0 mi NNE 5.8 mph - N/A   Clear
3:53 AM -15.0 °F -27.4 °F -20.0 °F 78% 30.12 in 10.0 mi NNE 4.6 mph - N/A   Clear
4:53 AM -15.0 °F -25.0 °F -20.9 °F 75% 30.11 in 10.0 mi SW 3.5 mph - N/A   Clear
5:53 AM -18.9 °F -29.5 °F -24.0 °F 78% 30.10 in 10.0 mi NNE 3.5 mph - N/A   Clear
6:53 AM -17.0 °F -29.7 °F -23.1 °F 74% 30.09 in 10.0 mi East 4.6 mph - N/A   Clear
7:53 AM -16.1 °F -30.6 °F -20.0 °F 82% 30.09 in 10.0 mi SSE 5.8 mph - N/A   Clear
8:53 AM -9.9 °F -23.4 °F -15.0 °F 78% 30.09 in 10.0 mi South 5.8 mph - N/A   Clear
9:53 AM -2.9 °F - -13.0 °F 62% 30.08 in 10.0 mi Calm Calm - N/A   Clear
10:53 AM -0.9 °F -8.9 °F -11.9 °F 60% 30.07 in 10.0 mi SSE 3.5 mph - N/A   Clear
11:53 AM 5.0 °F -4.1 °F -11.0 °F 48% 30.03 in 10.0 mi ENE 4.6 mph - N/A   Clear
12:53 PM 6.1 °F -4.3 °F -8.0 °F 53% 30.02 in 10.0 mi SE 5.8 mph - N/A   Clear
1:53 PM 6.1 °F -0.9 °F -9.0 °F 50% 30.00 in 10.0 mi ESE 3.5 mph - N/A   Clear
2:53 PM 7.0 °F -3.3 °F -8.0 °F 51% 30.01 in 10.0 mi ESE 5.8 mph - N/A   Clear
3:53 PM 7.0 °F -4.5 °F -6.0 °F 55% 30.01 in 10.0 mi SE 6.9 mph - N/A   Mostly Cloudy
4:53 PM 7.0 °F - -7.1 °F 53% 30.03 in 10.0 mi Calm Calm - N/A   Overcast
5:53 PM 6.1 °F - -5.1 °F 60% 30.05 in 10.0 mi Calm Calm - N/A   Overcast
6:53 PM 5.0 °F -2.1 °F -6.0 °F 61% 30.06 in 10.0 mi WNW 3.5 mph - N/A   Overcast
7:53 PM 3.9 °F -5.3 °F -6.0 °F 64% 30.08 in 10.0 mi WNW 4.6 mph - N/A   Mostly Cloudy
8:53 PM -0.9 °F -12.7 °F -7.1 °F 75% 30.09 in 10.0 mi West 5.8 mph - N/A   Mostly Cloudy
9:53 PM -2.0 °F -15.4 °F -8.0 °F 76% 30.08 in 10.0 mi NNW 6.9 mph - N/A   Partly Cloudy
10:53 PM -4.0 °F -17.8 °F -9.0 °F 79% 30.09 in 10.0 mi WSW 6.9 mph - N/A   Partly Cloudy
11:53 PM -5.1 °F -17.6 °F -9.9 °F 80% 30.09 in 10.0 mi NW 5.8 mph - N/A   Mostly Cloudy